{"data":{"norad_id":52658,"epoch":"2026-05-25T01:40:22.740096Z","epoch_age_seconds":59291,"freshness":"FRESH","line1":"1 52658U 22053C   26145.06970764 -.00000375  00000+0 -54684-5 0  9993","line2":"2 52658  53.2136 171.2378 0001020  74.1130 285.9975 15.08839182222765","mean_motion":15.08839182,"eccentricity":0.000102,"inclination_deg":53.2136,"raan_deg":171.2378,"arg_perigee_deg":74.113,"mean_anomaly_deg":285.9975,"bstar":-5.4684e-6,"rev_number":22276,"period_min":95.43760641815,"perigee_km":539.04026520928,"apogee_km":540.45151331869,"semimajor_km":6917.882889264,"source":"CELESTRAK","updated_at":"2026-05-25T13:38:17.209298Z"}}